Weather History for Boscobel, WI

Change the Weather History Date:

Thursday, June 6, 2013

  Actual Average (KPDC) Record (KPDC)
Temperature  
Mean Temperature 60 °F -  
Max Temperature 63 °F 80 °F 96 °F (2011)
Min Temperature 57 °F 54 °F 41 °F (1993)
Degree Days  
Heating Degree Days 5    
Growing Degree Days 10 (Base 50)    
Moisture  
Dew Point 55 °F    
Average Humidity 86    
Maximum Humidity 94    
Minimum Humidity 72    
Precipitation  
Precipitation 0.01 in - - ()
Sea Level Pressure  
Sea Level Pressure 29.94 in    
Wind  
Wind Speed 2 mph (ENE)    
Max Wind Speed 8 mph    
Max Gust Speed -    
Visibility 6 miles    
Events Rain    
Averages and records for this station are not official NWS values.
T = Trace of Precipitation, MM = Missing Value Source: NWS Daily Summary

Daily Weather History Graph

Daily Weather History Graph

Search for Another Location

Airport:

Trip Planner

Search our weather history database for the weather conditions in past years. The results will help you decide how hot, cold, wet, or windy it might be!

Date:

Astronomy

Jun. 06, 2013 Rise Set
Actual Time 5:23 AM CDT 8:39 PM CDT
Civil Twilight 4:48 AM CDT 9:14 PM CDT
Nautical Twilight 4:03 AM CDT 10:00 PM CDT
Astronomical Twilight 3:08 AM CDT 10:55 PM CDT
Moon 4:08 AM CDT (6/6) 6:59 PM CDT (6/6)
Length of Visible Light 16h 25m
Length of Day
15h 15m
Waning Crescent, 3% of the Moon is Illuminated
Jun 6
Waning Crescent
Jun 8
New
Jun 16
First Quarter
Jun 23
Full
Jun 29
Last Quarter

Hourly Weather History & Observations

Time (CDT) Temp. Dew Point Humidity Pressure Visibility Wind Dir Wind Speed Gust Speed Precip Events Conditions
12:09 AM 60.1 °F 57.9 °F 93% 29.95 in 4.0 mi Calm Calm - 0.00 in   Overcast
12:29 AM 60.1 °F 57.9 °F 93% 29.94 in 2.5 mi Calm Calm - 0.00 in   Overcast
12:35 AM 60.1 °F 57.9 °F 93% 29.94 in 2.5 mi Calm Calm - 0.00 in   Overcast
12:53 AM 60.1 °F 57.9 °F 93% 29.95 in 2.0 mi Calm Calm - 0.00 in   Overcast
1:00 AM 60.1 °F 57.9 °F 93% 29.94 in 1.8 mi Calm Calm - N/A   Overcast
1:14 AM 60.1 °F 57.9 °F 93% 29.94 in 1.8 mi Calm Calm - N/A   Overcast
1:22 AM 60.1 °F 57.9 °F 93% 29.94 in 2.5 mi Calm Calm - N/A   Overcast
1:30 AM 60.1 °F 57.9 °F 93% 29.93 in 3.0 mi Calm Calm - N/A   Overcast
1:53 AM 60.1 °F 57.0 °F 90% 29.94 in 4.0 mi Calm Calm - N/A   Overcast
2:31 AM 59.0 °F 55.9 °F 90% 29.93 in 4.0 mi Calm Calm - N/A   Overcast
2:53 AM 59.0 °F 55.9 °F 90% 29.93 in 4.0 mi Calm Calm - N/A   Overcast
3:53 AM 57.9 °F 55.9 °F 93% 29.92 in 4.0 mi ENE 3.5 mph - N/A   Overcast
4:53 AM 57.9 °F 55.0 °F 90% 29.92 in 4.0 mi ENE 3.5 mph - 0.00 in Rain Light Rain
5:33 AM 57.9 °F 55.0 °F 90% 29.91 in 3.0 mi East 3.5 mph - 0.00 in   Overcast
5:50 AM 57.2 °F 55.4 °F 94% 29.91 in 2.5 mi Calm Calm - 0.00 in   Overcast
5:53 AM 57.9 °F 55.0 °F 90% 29.91 in 2.5 mi Calm Calm - 0.00 in   Overcast
6:01 AM 57.9 °F 55.0 °F 90% 29.91 in 4.0 mi Variable 3.5 mph - N/A   Overcast
6:20 AM 57.9 °F 55.0 °F 90% 29.91 in 4.0 mi NE 3.5 mph - N/A   Overcast
6:39 AM 57.9 °F 55.0 °F 90% 29.92 in 3.0 mi NE 4.6 mph - N/A   Overcast
6:53 AM 57.0 °F 55.0 °F 93% 29.92 in 4.0 mi ENE 4.6 mph - N/A   Overcast
7:53 AM 57.0 °F 54.0 °F 89% 29.93 in 6.0 mi ENE 4.6 mph - N/A   Overcast
8:53 AM 59.0 °F 55.0 °F 87% 29.94 in 6.0 mi ENE 4.6 mph - N/A   Overcast
9:53 AM 60.1 °F 55.0 °F 83% 29.94 in 7.0 mi East 5.8 mph - N/A   Overcast
10:53 AM 61.0 °F 55.0 °F 81% 29.93 in 9.0 mi ENE 5.8 mph - N/A   Overcast
11:30 AM 60.1 °F 54.0 °F 80% 29.94 in 8.0 mi ENE 4.6 mph - N/A   Overcast
11:37 AM 61.0 °F 55.0 °F 81% 29.94 in 8.0 mi Variable 5.8 mph - N/A   Overcast
11:53 AM 61.0 °F 54.0 °F 78% 29.94 in 8.0 mi ENE 6.9 mph - N/A   Overcast
12:53 PM 61.0 °F 54.0 °F 78% 29.94 in 9.0 mi ENE 6.9 mph - N/A   Overcast
1:16 PM 61.0 °F 54.0 °F 78% 29.94 in 9.0 mi ENE 6.9 mph - N/A   Overcast
1:53 PM 63.0 °F 54.0 °F 72% 29.94 in 8.0 mi NE 6.9 mph - N/A   Overcast
2:53 PM 62.1 °F 54.0 °F 75% 29.94 in 7.0 mi East 8.1 mph - N/A   Overcast
3:27 PM 60.1 °F 54.0 °F 80% 29.95 in 6.0 mi East 8.1 mph - N/A   Haze
3:53 PM 61.0 °F 54.0 °F 78% 29.95 in 7.0 mi ENE 5.8 mph - N/A   Overcast
4:04 PM 60.1 °F 54.0 °F 80% 29.95 in 7.0 mi East 8.1 mph - N/A   Overcast
4:50 PM 60.8 °F 53.6 °F 77% 29.95 in 10.0 mi ENE 5.8 mph - N/A   Overcast
4:53 PM 60.1 °F 54.0 °F 80% 29.96 in 10.0 mi East 5.8 mph - N/A   Overcast
5:00 PM 60.1 °F 54.0 °F 80% 29.95 in 9.0 mi NE 4.6 mph - N/A   Overcast
5:53 PM 60.1 °F 54.0 °F 80% 29.96 in 10.0 mi ENE 4.6 mph - N/A   Overcast
6:13 PM 61.0 °F 54.0 °F 78% 29.95 in 10.0 mi Variable 3.5 mph - N/A   Overcast
6:42 PM 60.1 °F 55.0 °F 83% 29.95 in 7.0 mi NE 3.5 mph - N/A   Overcast
6:49 PM 60.8 °F 55.4 °F 82% 29.95 in 7.0 mi ENE 3.5 mph - N/A   Overcast
6:53 PM 60.1 °F 55.0 °F 83% 29.96 in 7.0 mi East 3.5 mph - N/A   Overcast
7:53 PM 60.1 °F 55.0 °F 83% 29.96 in 8.0 mi Calm Calm - N/A   Overcast
8:53 PM 59.0 °F 54.0 °F 83% 29.96 in 9.0 mi Calm Calm - N/A   Overcast
9:03 PM 59.0 °F 55.0 °F 87% 29.96 in 9.0 mi Calm Calm - N/A   Overcast
9:24 PM 59.0 °F 55.0 °F 87% 29.97 in 7.0 mi Calm Calm - N/A   Overcast
9:53 PM 57.9 °F 55.0 °F 90% 29.98 in 3.0 mi NE 4.6 mph - 0.00 in Rain Light Rain
10:53 PM 57.0 °F 54.0 °F 89% 29.99 in 5.0 mi ENE 3.5 mph - 0.01 in   Overcast
11:04 PM 57.0 °F 55.0 °F 93% 29.98 in 4.0 mi ENE 4.6 mph - N/A   Overcast
11:32 PM 57.0 °F 55.0 °F 93% 29.98 in 5.0 mi Calm Calm - N/A   Overcast
11:53 PM 57.0 °F 54.0 °F 89% 29.99 in 5.0 mi NE 3.5 mph - N/A   Overcast